Location: Monteux
(44.0348°N, 4.9972°E)
Time: 17:41:25
(UTC+00:00)

CENTAUR R/B - Pass Details

Date: 30 November 2020
Orbit: 750 x 1438 km, 63.4° (Epoch: 11 January)

Event Time Altitude Azimuth Distance (km) Brightness Sun altitude
Rises 16:59:29 0° 152° (SSE) 3,351 5.2 -9.9°
Reaches altitude 10° 17:03:40 10° 121° (ESE) 2,551 4.3 -10.6°
Maximum altitude 17:05:38 12° 101° (ESE) 2,497 4.1 -11.0°
Enters shadow 17:06:27 11° 93° (E) 2,548 4.1 -11.1°
